QPF
0.01 0.01 0.01 0.02 0.03 0.03 0.03 0.03 0.09 0.10 0.08 0.05 0.04 0.03 0.03 0.03 0.02 0.02 0.02 0.03 0.03 0.03 0.02 0.02 0.02 0.03 0.03 0.03 0.04 0.03 0.01 0.02 0.01 0.01 0.01 0.01 0.01 0.01 0.01 0.01 0.01 0.02 0.03
0.01 0.00 0.01 0.01 0.02 0.02 0.03 0.04 0.09 0.08 0.06 0.05 0.03 0.02 0.02 0.01 0.01 0.02 0.02 0.02 0.03 0.03 0.03 0.03 0.03 0.02 0.03 0.02 0.01 0.01 0.02 0.02 0.01 0.01 0.01 0.01 0.01 0.01 0.01 0.01 0.02 0.03 0.06
0.00 0.00 0.01 0.01 0.02 0.01 0.02 0.04 0.08 0.06 0.05 0.05 0.03 0.02 0.01 0.01 0.01 0.01 0.01 0.01 0.02 0.02 0.02 0.03 0.04 0.03 0.01 0.01 0.01 0.01 0.02 0.02 0.02 0.01 0.02 0.02 0.02 0.02 0.02 0.02 0.02 0.03 0.04
0.00 0.01 0.01 0.01 0.03 0.02 0.02 0.03 0.05 0.05 0.06 0.06 0.04 0.02 0.02 0.01 0.01 0.00 0.01 0.01 0.02 0.03 0.02 0.02 0.02 0.02 0.02 0.02 0.02 0.01 0.02 0.03 0.02 0.02 0.02 0.02 0.02 0.02 0.03 0.02 0.03 0.03 0.03
0.00 0.00 0.01 0.01 0.04 0.05 0.02 0.02 0.03 0.04 0.06 0.05 0.03 0.02 0.02 0.01 0.00 0.00 0.00 0.01 0.02 0.03 0.03 0.03 0.02 0.03 0.02 0.02 0.02 0.01 0.02 0.02 0.03 0.03 0.02 0.02 0.02 0.02 0.01 0.01 0.02 0.02 0.02
0.00 0.00 0.00 0.01 0.04 0.07 0.04 0.03 0.02 0.03 0.04 0.05 0.05 0.02 0.01 0.01 0.01 0.01 0.01 0.01 0.01 0.02 0.02 0.03 0.03 0.04 0.04 0.03 0.02 0.02 0.01 0.02 0.02 0.02 0.02 0.02 0.02 0.02 0.02 0.02 0.01 0.02 0.02
0.00 0.00 0.00 0.01 0.03 0.09 0.06 0.04 0.03 0.03 0.03 0.04 0.06 0.04 0.02 0.01 0.01 0.01 0.01 0.02 0.02 0.02 0.02 0.03 0.05 0.05 0.04 0.03 0.03 0.03 0.02 0.03 0.02 0.02 0.02 0.02 0.02 0.02 0.03 0.03 0.02 0.02 0.03
0.01 0.00 0.00 0.01 0.01 0.09 0.07 0.04 0.03 0.03 0.04 0.05 0.05 0.05 0.03 0.02 0.01 0.01 0.01 0.02 0.02 0.03 0.03 0.04 0.05 0.05 0.04 0.03 0.03 0.03 0.04 0.04 0.04 0.03 0.03 0.02 0.02 0.02 0.03 0.03 0.02 0.02 0.02
0.01 0.01 0.00 0.00 0.01 0.06 0.06 0.03 0.02 0.02 0.04 0.07 0.07 0.05 0.04 0.02 0.01 0.02 0.02 0.03 0.02 0.02 0.03 0.03 0.03 0.03 0.03 0.03 0.03 0.03 0.02 0.02 0.02 0.02 0.02 0.02 0.01 0.02 0.02 0.03 0.02 0.02 0.02
0.01 0.01 0.01 0.00 0.01 0.04 0.06 0.04 0.03 0.02 0.03 0.05 0.06 0.06 0.05 0.04 0.02 0.02 0.03 0.04 0.03 0.02 0.03 0.02 0.01 0.01 0.01 0.02 0.02 0.03 0.03 0.02 0.02 0.02 0.02 0.02 0.01 0.02 0.02 0.03 0.03 0.03 0.03
0.00 0.00 0.01 0.01 0.01 0.02 0.05 0.05 0.04 0.02 0.02 0.03 0.04 0.04 0.05 0.05 0.04 0.02 0.03 0.05 0.04 0.03 0.03 0.02 0.01 0.01 0.01 0.01 0.01 0.01 0.01 0.02 0.02 0.02 0.02 0.02 0.02 0.02 0.02 0.02 0.02 0.02 0.03
0.01 0.01 0.01 0.01 0.00 0.01 0.03 0.05 0.05 0.03 0.03 0.03 0.03 0.03 0.04 0.04 0.04 0.04 0.04 0.05 0.04 0.03 0.02 0.02 0.02 0.01 0.01 0.01 0.01 0.00 0.00 0.01 0.01 0.01 0.02 0.02 0.02 0.02 0.02 0.02 0.02 0.01 0.01
0.00 0.00 0.01 0.00 0.01 0.01 0.02 0.05 0.04 0.04 0.04 0.03 0.03 0.04 0.04 0.03 0.04 0.05 0.04 0.04 0.04 0.03 0.02 0.02 0.01 0.01 0.00 0.00 0.00 0.00 0.01 0.01 0.01 0.01 0.01 0.01 0.02 0.02 0.02 0.03 0.02 0.02 0.01
0.00 0.00 0.00 0.01 0.01 0.01 0.01 0.04 0.04 0.03 0.03 0.03 0.03 0.03 0.03 0.03 0.03 0.03 0.03 0.02 0.01 0.01 0.01 0.01 0.01 0.01 0.00 0.00 0.00 0.00 0.00 0.00 0.00 0.01 0.01 0.01 0.02 0.02 0.02 0.03 0.03 0.03 0.03
0.00 0.00 0.00 0.00 0.00 0.01 0.01 0.03 0.03 0.04 0.03 0.03 0.03 0.03 0.03 0.03 0.02 0.03 0.02 0.01 0.01 0.01 0.01 0.01 0.01 0.01 0.01 0.01 0.01 0.00 0.00 0.00 0.00 0.01 0.01 0.01 0.01 0.03 0.03 0.02 0.02 0.03 0.03
0.00 0.00 0.00 0.00 0.00 0.00 0.01 0.01 0.02 0.02 0.02 0.03 0.03 0.03 0.03 0.02 0.02 0.02 0.03 0.01 0.01 0.01 0.00 0.01 0.01 0.01 0.01 0.01 0.01 0.01 0.01 0.00 0.01 0.01 0.02 0.02 0.03 0.05 0.04 0.02 0.02 0.02 0.03
0.00 0.00 0.00 0.00 0.00 0.00 0.00 0.01 0.01 0.02 0.02 0.02 0.02 0.03 0.04 0.03 0.02 0.02 0.02 0.01 0.01 0.01 0.00 0.01 0.01 0.01 0.01 0.01 0.01 0.02 0.02 0.01 0.01 0.01 0.01 0.01 0.02 0.03 0.03 0.02 0.02 0.02 0.02
0.00 0.00 0.00 0.00 0.00 0.00 0.00 0.01 0.01 0.01 0.01 0.01 0.01 0.02 0.04 0.04 0.03 0.02 0.02 0.01 0.01 0.00 0.00 0.01 0.01 0.01 0.01 0.02 0.02 0.01 0.01 0.01 0.01 0.01 0.01 0.02 0.02 0.02 0.02 0.02 0.02 0.02 0.02
0.01 0.01 0.00 0.01 0.01 0.00 0.01 0.01 0.01 0.01 0.01 0.01 0.01 0.02 0.04 0.06 0.05 0.03 0.02 0.01 0.01 0.01 0.01 0.01 0.01 0.01 0.02 0.01 0.02 0.02 0.02 0.02 0.02 0.03 0.03 0.03 0.02 0.03 0.03 0.02 0.01 0.01 0.01
0.01 0.01 0.01 0.01 0.01 0.01 0.00 0.00 0.01 0.01 0.01 0.01 0.01 0.01 0.03 0.05 0.06 0.07 0.04 0.03 0.01 0.01 0.02 0.02 0.01 0.01 0.02 0.02 0.01 0.01 0.02 0.03 0.03 0.03 0.03 0.04 0.03 0.03 0.03 0.02 0.02 0.01 0.01
0.01 0.01 0.01 0.01 0.01 0.01 0.01 0.00 0.01 0.01 0.01 0.01 0.01 0.01 0.02 0.04 0.06 0.07 0.07 0.06 0.04 0.02 0.02 0.02 0.01 0.01 0.01 0.01 0.01 0.00 0.00 0.01 0.02 0.04 0.04 0.04 0.05 0.04 0.03 0.03 0.03 0.02 0.01
0.01 0.01 0.01 0.01 0.01 0.01 0.01 0.01 0.01 0.01 0.01 0.01 0.01 0.01 0.02 0.03 0.06 0.07 0.06 0.06 0.05 0.03 0.02 0.02 0.01 0.01 0.01 0.01 0.01 0.01 0.01 0.01 0.01 0.01 0.03 0.04 0.05 0.04 0.04 0.03 0.03 0.03 0.02
0.00 0.01 0.01 0.01 0.01 0.01 0.01 0.01 0.01 0.01 0.01 0.01 0.01 0.01 0.01 0.02 0.04 0.07 0.06 0.05 0.04 0.04 0.03 0.02 0.01 0.01 0.00 0.00 0.01 0.01 0.01 0.01 0.01 0.01 0.01 0.02 0.02 0.02 0.02 0.03 0.03 0.03 0.03
0.00 0.00 0.01 0.01 0.01 0.01 0.01 0.01 0.01 0.01 0.01 0.01 0.01 0.01 0.01 0.02 0.02 0.04 0.06 0.06 0.04 0.03 0.02 0.02 0.01 0.01 0.01 0.01 0.01 0.02 0.01 0.01 0.01 0.01 0.01 0.02 0.02 0.02 0.02 0.02 0.02 0.02 0.03
0.00 0.00 0.01 0.01 0.01 0.01 0.01 0.01 0.02 0.02 0.02 0.02 0.02 0.02 0.01 0.02 0.01 0.03 0.04 0.04 0.04 0.04 0.03 0.02 0.02 0.02 0.02 0.01 0.02 0.01 0.01 0.01 0.02 0.02 0.02 0.03 0.03 0.03 0.02 0.02 0.02 0.02 0.03
0.00 0.00 0.00 0.01 0.01 0.02 0.02 0.01 0.01 0.02 0.02 0.01 0.02 0.02 0.02 0.01 0.01 0.01 0.04 0.03 0.03 0.03 0.03 0.02 0.03 0.03 0.03 0.03 0.02 0.02 0.02 0.02 0.02 0.03 0.02 0.03 0.03 0.03 0.03 0.03 0.02 0.02 0.02
MSLP
1009.51 1010.14 1010.78 1011.40 1011.98 1012.52 1013.02 1013.49 1013.92 1014.32 1014.68 1015.01 1015.30 1015.55 1015.75 1015.90 1016.02 1016.09 1016.14 1016.15 1016.15 1016.14 1016.11 1016.09 1016.06 1016.03 1015.98 1015.90 1015.79 1015.61 1015.37 1015.05 1014.68 1014.26 1013.83 1013.43 1013.08 1012.81 1012.64 1012.56 1012.55 1012.59 1012.65
1008.88 1009.55 1010.24 1010.89 1011.50 1012.06 1012.57 1013.04 1013.49 1013.91 1014.30 1014.67 1015.01 1015.30 1015.54 1015.73 1015.86 1015.95 1016.00 1016.03 1016.03 1016.04 1016.04 1016.04 1016.05 1016.06 1016.05 1016.02 1015.95 1015.82 1015.63 1015.38 1015.08 1014.73 1014.37 1014.02 1013.71 1013.47 1013.30 1013.21 1013.18 1013.19 1013.21
1008.30 1008.98 1009.68 1010.33 1010.94 1011.49 1012.00 1012.48 1012.94 1013.38 1013.81 1014.23 1014.61 1014.94 1015.22 1015.44 1015.60 1015.72 1015.79 1015.83 1015.86 1015.89 1015.92 1015.96 1016.01 1016.05 1016.08 1016.08 1016.05 1015.97 1015.83 1015.64 1015.40 1015.13 1014.84 1014.55 1014.30 1014.08 1013.93 1013.83 1013.78 1013.77 1013.78
1007.80 1008.44 1009.09 1009.71 1010.28 1010.81 1011.30 1011.77 1012.24 1012.71 1013.18 1013.63 1014.06 1014.44 1014.77 1015.03 1015.22 1015.37 1015.47 1015.55 1015.62 1015.69 1015.76 1015.84 1015.92 1015.99 1016.05 1016.08 1016.07 1016.02 1015.93 1015.80 1015.63 1015.43 1015.22 1015.00 1014.79 1014.61 1014.48 1014.38 1014.32 1014.30 1014.30
1007.40 1007.95 1008.51 1009.04 1009.54 1010.01 1010.46 1010.92 1011.39 1011.87 1012.38 1012.87 1013.35 1013.78 1014.16 1014.46 1014.71 1014.90 1015.05 1015.18 1015.30 1015.42 1015.54 1015.66 1015.77 1015.87 1015.94 1015.98 1015.99 1015.97 1015.92 1015.84 1015.73 1015.60 1015.46 1015.31 1015.16 1015.02 1014.90 1014.81 1014.75 1014.72 1014.72
1007.12 1007.53 1007.95 1008.36 1008.75 1009.14 1009.53 1009.95 1010.42 1010.92 1011.45 1011.99 1012.51 1012.99 1013.41 1013.77 1014.07 1014.31 1014.52 1014.71 1014.89 1015.06 1015.23 1015.39 1015.53 1015.64 1015.73 1015.78 1015.80 1015.79 1015.77 1015.73 1015.68 1015.62 1015.55 1015.46 1015.37 1015.27 1015.17 1015.09 1015.03 1015.00 1015.00
1007.01 1007.24 1007.49 1007.75 1008.00 1008.29 1008.61 1008.98 1009.43 1009.93 1010.48 1011.05 1011.60 1012.13 1012.59 1013.00 1013.34 1013.64 1013.91 1014.16 1014.39 1014.62 1014.84 1015.03 1015.19 1015.32 1015.40 1015.45 1015.47 1015.47 1015.46 1015.46 1015.46 1015.46 1015.45 1015.42 1015.38 1015.32 1015.26 1015.19 1015.14 1015.11 1015.12
1007.08 1007.13 1007.20 1007.29 1007.40 1007.57 1007.81 1008.14 1008.55 1009.05 1009.60 1010.18 1010.76 1011.31 1011.80 1012.24 1012.62 1012.96 1013.27 1013.57 1013.85 1014.12 1014.38 1014.59 1014.77 1014.89 1014.97 1015.00 1015.01 1015.01 1015.01 1015.04 1015.07 1015.12 1015.17 1015.20 1015.21 1015.19 1015.15 1015.11 1015.07 1015.06 1015.08
1007.38 1007.25 1007.15 1007.09 1007.07 1007.13 1007.29 1007.56 1007.94 1008.42 1008.96 1009.54 1010.11 1010.65 1011.15 1011.59 1011.98 1012.34 1012.68 1013.00 1013.31 1013.61 1013.88 1014.11 1014.28 1014.40 1014.46 1014.47 1014.46 1014.45 1014.46 1014.49 1014.56 1014.64 1014.73 1014.81 1014.87 1014.89 1014.88 1014.86 1014.84 1014.84 1014.88
1007.92 1007.65 1007.41 1007.22 1007.10 1007.08 1007.17 1007.39 1007.73 1008.17 1008.68 1009.23 1009.77 1010.28 1010.74 1011.16 1011.53 1011.87 1012.20 1012.52 1012.83 1013.13 1013.40 1013.62 1013.78 1013.87 1013.91 1013.90 1013.87 1013.84 1013.84 1013.87 1013.95 1014.06 1014.18 1014.30 1014.39 1014.45 1014.47 1014.47 1014.48 1014.50 1014.57
1008.69 1008.33 1008.00 1007.73 1007.54 1007.46 1007.50 1007.68 1007.98 1008.38 1008.84 1009.32 1009.80 1010.24 1010.64 1010.99 1011.30 1011.59 1011.87 1012.15 1012.43 1012.70 1012.95 1013.15 1013.28 1013.35 1013.36 1013.32 1013.26 1013.21 1013.19 1013.23 1013.30 1013.42 1013.56 1013.70 1013.82 1013.90 1013.95 1013.98 1014.01 1014.07 1014.17
1009.64 1009.24 1008.87 1008.56 1008.34 1008.23 1008.25 1008.39 1008.65 1008.99 1009.38 1009.79 1010.17 1010.52 1010.81 1011.06 1011.27 1011.48 1011.68 1011.89 1012.12 1012.34 1012.54 1012.70 1012.80 1012.84 1012.82 1012.75 1012.67 1012.60 1012.56 1012.57 1012.64 1012.76 1012.90 1013.05 1013.18 1013.29 1013.36 1013.42 1013.49 1013.57 1013.71
1010.68 1010.29 1009.92 1009.61 1009.39 1009.27 1009.27 1009.39 1009.60 1009.88 1010.19 1010.50 1010.77 1010.99 1011.16 1011.28 1011.38 1011.47 1011.57 1011.69 1011.84 1011.99 1012.14 1012.25 1012.31 1012.32 1012.27 1012.18 1012.07 1011.98 1011.92 1011.92 1011.97 1012.07 1012.21 1012.36 1012.50 1012.62 1012.72 1012.80 1012.90 1013.02 1013.19
1011.72 1011.35 1011.02 1010.73 1010.53 1010.41 1010.41 1010.49 1010.65 1010.86 1011.08 1011.27 1011.42 1011.51 1011.55 1011.54 1011.50 1011.47 1011.45 1011.48 1011.53 1011.61 1011.69 1011.75 1011.78 1011.75 1011.68 1011.57 1011.45 1011.34 1011.26 1011.23 1011.27 1011.35 1011.48 1011.62 1011.76 1011.89 1012.01 1012.13 1012.25 1012.41 1012.62
1012.65 1012.32 1012.02 1011.77 1011.58 1011.47 1011.44 1011.49 1011.59 1011.72 1011.84 1011.92 1011.95 1011.91 1011.81 1011.67 1011.51 1011.36 1011.24 1011.16 1011.13 1011.13 1011.15 1011.16 1011.15 1011.10 1011.01 1010.89 1010.76 1010.63 1010.54 1010.50 1010.51 1010.58 1010.68 1010.82 1010.96 1011.10 1011.24 1011.38 1011.54 1011.73 1011.98
1013.40 1013.10 1012.82 1012.58 1012.40 1012.27 1012.22 1012.22 1012.25 1012.29 1012.31 1012.29 1012.20 1012.05 1011.84 1011.59 1011.32 1011.07 1010.86 1010.69 1010.58 1010.52 1010.48 1010.45 1010.41 1010.34 1010.23 1010.11 1009.97 1009.83 1009.73 1009.67 1009.67 1009.72 1009.81 1009.94 1010.08 1010.24 1010.39 1010.56 1010.76 1010.99 1011.28
1013.92 1013.63 1013.35 1013.11 1012.90 1012.74 1012.64 1012.58 1012.53 1012.49 1012.42 1012.30 1012.12 1011.88 1011.58 1011.24 1010.90 1010.57 1010.29 1010.06 1009.89 1009.77 1009.69 1009.62 1009.55 1009.46 1009.35 1009.22 1009.07 1008.93 1008.83 1008.76 1008.74 1008.78 1008.87 1008.99 1009.14 1009.30 1009.49 1009.69 1009.92 1010.19 1010.51
1014.20 1013.90 1013.60 1013.32 1013.07 1012.86 1012.70 1012.56 1012.44 1012.32 1012.17 1011.97 1011.72 1011.41 1011.05 1010.67 1010.27 1009.90 1009.57 1009.30 1009.09 1008.93 1008.81 1008.71 1008.61 1008.51 1008.38 1008.24 1008.10 1007.96 1007.84 1007.77 1007.75 1007.78 1007.86 1007.99 1008.15 1008.34 1008.54 1008.78 1009.04 1009.34 1009.70
1014.28 1013.94 1013.60 1013.28 1012.98 1012.71 1012.47 1012.26 1012.07 1011.87 1011.65 1011.40 1011.10 1010.75 1010.36 1009.95 1009.53 1009.14 1008.79 1008.48 1008.24 1008.05 1007.89 1007.77 1007.65 1007.52 1007.39 1007.24 1007.09 1006.94 1006.83 1006.75 1006.73 1006.76 1006.85 1006.98 1007.16 1007.37 1007.60 1007.87 1008.16 1008.49 1008.88
1014.20 1013.82 1013.44 1013.06 1012.71 1012.38 1012.08 1011.81 1011.56 1011.30 1011.03 1010.73 1010.40 1010.03 1009.62 1009.20 1008.78 1008.37 1008.01 1007.68 1007.41 1007.19 1007.01 1006.85 1006.70 1006.55 1006.40 1006.24 1006.08 1005.94 1005.82 1005.75 1005.73 1005.77 1005.86 1006.01 1006.20 1006.44 1006.70 1006.99 1007.31 1007.67 1008.07
1014.01 1013.60 1013.18 1012.77 1012.38 1012.01 1011.66 1011.34 1011.04 1010.73 1010.42 1010.09 1009.74 1009.35 1008.94 1008.51 1008.08 1007.67 1007.29 1006.95 1006.65 1006.39 1006.17 1005.97 1005.79 1005.62 1005.44 1005.27 1005.11 1004.96 1004.85 1004.78 1004.77 1004.82 1004.93 1005.10 1005.31 1005.57 1005.85 1006.17 1006.51 1006.89 1007.30
1013.74 1013.32 1012.89 1012.46 1012.05 1011.66 1011.29 1010.94 1010.60 1010.27 1009.93 1009.57 1009.19 1008.79 1008.36 1007.93 1007.49 1007.06 1006.65 1006.28 1005.94 1005.64 1005.38 1005.14 1004.91 1004.71 1004.51 1004.32 1004.15 1004.01 1003.91 1003.86 1003.87 1003.93 1004.06 1004.25 1004.48 1004.76 1005.07 1005.40 1005.76 1006.15 1006.57
1013.42 1013.01 1012.59 1012.18 1011.78 1011.38 1011.01 1010.64 1010.28 1009.92 1009.55 1009.17 1008.76 1008.34 1007.89 1007.43 1006.96 1006.50 1006.06 1005.64 1005.25 1004.90 1004.58 1004.29 1004.02 1003.78 1003.55 1003.36 1003.19 1003.06 1002.97 1002.94 1002.98 1003.07 1003.23 1003.44 1003.70 1003.99 1004.32 1004.67 1005.04 1005.44 1005.86
1013.06 1012.68 1012.30 1011.92 1011.54 1011.17 1010.79 1010.42 1010.04 1009.66 1009.26 1008.84 1008.40 1007.94 1007.46 1006.96 1006.45 1005.95 1005.45 1004.97 1004.53 1004.11 1003.72 1003.37 1003.05 1002.77 1002.52 1002.32 1002.15 1002.04 1001.98 1001.99 1002.06 1002.19 1002.38 1002.62 1002.90 1003.22 1003.56 1003.93 1004.31 1004.71 1005.15
1012.69 1012.35 1012.02 1011.67 1011.33 1010.97 1010.60 1010.22 1009.82 1009.41 1008.97 1008.51 1008.03 1007.52 1006.99 1006.44 1005.89 1005.32 1004.77 1004.22 1003.70 1003.21 1002.75 1002.34 1001.96 1001.64 1001.37 1001.15 1001.00 1000.91 1000.89 1000.94 1001.06 1001.23 1001.47 1001.74 1002.06 1002.40 1002.76 1003.14 1003.53 1003.95 1004.39
1012.34 1012.04 1011.74 1011.43 1011.10 1010.75 1010.37 1009.97 1009.54 1009.08 1008.60 1008.09 1007.56 1007.00 1006.42 1005.83 1005.22 1004.60 1003.97 1003.36 1002.76 1002.19 1001.66 1001.17 1000.73 1000.36 1000.06 999.84 999.70 999.64 999.66 999.76 999.93 1000.16 1000.45 1000.77 1001.12 1001.49 1001.88 1002.28 1002.69 1003.12 1003.58
Thickness
5728 5728 5726 5725 5723 5721 5720 5718 5715 5714 5712 5710 5709 5707 5705 5704 5702 5700 5699 5698 5697 5697 5697 5697 5696 5694 5694 5693 5693 5692 5690 5690 5692 5692 5690 5691 5691 5691 5689 5690 5691 5691 5691
5725 5724 5722 5721 5720 5718 5716 5715 5712 5711 5709 5707 5707 5704 5702 5701 5699 5696 5695 5694 5694 5693 5692 5692 5692 5690 5689 5688 5688 5687 5686 5686 5687 5688 5687 5684 5684 5683 5685 5685 5685 5686 5686
5722 5722 5720 5718 5716 5715 5713 5712 5710 5708 5706 5705 5703 5700 5698 5697 5695 5692 5691 5690 5690 5689 5688 5688 5688 5686 5686 5684 5683 5682 5681 5681 5683 5684 5683 5680 5678 5678 5680 5680 5680 5680 5680
5720 5719 5717 5715 5714 5712 5711 5710 5708 5706 5704 5702 5700 5697 5694 5692 5691 5690 5688 5687 5686 5685 5684 5684 5683 5682 5681 5680 5679 5679 5678 5677 5677 5678 5678 5680 5678 5675 5673 5674 5675 5675 5675
5717 5716 5715 5713 5712 5710 5708 5707 5705 5703 5702 5700 5697 5694 5692 5691 5689 5687 5685 5684 5683 5681 5680 5679 5679 5678 5677 5676 5675 5674 5674 5675 5674 5674 5673 5672 5672 5674 5671 5668 5668 5669 5669
5715 5714 5713 5711 5709 5707 5704 5702 5701 5699 5698 5696 5694 5692 5689 5687 5685 5683 5681 5681 5679 5678 5676 5675 5675 5674 5674 5672 5671 5670 5670 5670 5670 5670 5669 5668 5668 5667 5667 5665 5664 5664 5664
5712 5710 5707 5706 5704 5702 5701 5699 5698 5696 5695 5693 5691 5689 5687 5685 5682 5681 5679 5678 5677 5675 5673 5672 5671 5671 5670 5669 5667 5667 5666 5666 5665 5665 5666 5665 5665 5664 5663 5662 5661 5659 5659
5710 5707 5705 5703 5701 5699 5698 5697 5695 5694 5692 5691 5689 5687 5685 5682 5680 5678 5677 5676 5674 5673 5671 5669 5668 5667 5666 5664 5664 5663 5662 5662 5662 5661 5660 5660 5660 5659 5658 5657 5655 5654 5654
5706 5704 5702 5701 5699 5697 5696 5695 5693 5691 5689 5688 5686 5684 5682 5679 5677 5675 5674 5672 5671 5669 5667 5666 5664 5663 5662 5661 5660 5658 5658 5657 5657 5657 5656 5655 5654 5653 5653 5652 5651 5649 5648
5702 5700 5699 5697 5696 5694 5692 5692 5690 5688 5686 5684 5682 5680 5678 5676 5674 5672 5670 5669 5667 5665 5663 5662 5661 5659 5658 5656 5655 5654 5652 5652 5651 5650 5650 5649 5649 5648 5646 5646 5646 5646 5644
5698 5697 5694 5693 5692 5690 5688 5687 5686 5684 5682 5680 5678 5676 5674 5671 5669 5668 5666 5664 5663 5661 5659 5658 5656 5655 5653 5652 5650 5649 5647 5647 5646 5646 5645 5644 5643 5641 5641 5640 5639 5638 5638
5693 5692 5690 5688 5687 5685 5683 5682 5681 5678 5676 5674 5673 5671 5669 5667 5665 5663 5661 5660 5658 5657 5655 5654 5652 5650 5649 5647 5645 5643 5642 5642 5641 5640 5639 5638 5636 5635 5634 5633 5633 5632 5631
5686 5685 5684 5683 5681 5679 5677 5676 5675 5673 5671 5669 5667 5666 5664 5662 5660 5658 5657 5655 5654 5652 5651 5649 5647 5646 5644 5643 5641 5639 5638 5637 5636 5634 5633 5632 5630 5629 5627 5626 5626 5625 5624
5680 5679 5678 5677 5676 5674 5672 5671 5669 5668 5666 5663 5661 5660 5659 5657 5655 5653 5651 5650 5648 5647 5645 5644 5642 5640 5639 5637 5635 5633 5632 5631 5629 5628 5626 5625 5624 5622 5621 5620 5619 5618 5616
5674 5673 5672 5671 5669 5668 5667 5665 5664 5662 5660 5658 5656 5655 5654 5652 5649 5647 5645 5644 5643 5641 5640 5638 5637 5635 5633 5631 5628 5627 5625 5624 5623 5622 5620 5619 5616 5614 5613 5613 5611 5610 5608
5668 5668 5667 5665 5663 5662 5661 5660 5658 5657 5655 5653 5651 5649 5647 5645 5643 5641 5640 5638 5636 5635 5634 5632 5631 5628 5626 5622 5618 5617 5617 5617 5616 5615 5614 5612 5609 5606 5604 5603 5602 5601 5601
5663 5663 5662 5661 5659 5658 5657 5655 5653 5652 5650 5648 5646 5644 5641 5640 5638 5636 5634 5631 5630 5628 5626 5625 5623 5621 5618 5613 5610 5609 5610 5610 5610 5608 5607 5605 5603 5599 5599 5596 5594 5593 5591
5658 5658 5657 5656 5654 5652 5651 5649 5648 5646 5644 5642 5641 5638 5636 5634 5632 5630 5627 5625 5624 5622 5620 5618 5616 5613 5610 5606 5604 5602 5603 5603 5602 5601 5600 5598 5596 5593 5591 5590 5589 5588 5586
5652 5652 5652 5651 5649 5647 5644 5643 5641 5639 5637 5636 5634 5632 5630 5628 5625 5623 5622 5620 5618 5616 5614 5611 5609 5607 5604 5599 5596 5594 5596 5596 5595 5594 5592 5590 5588 5584 5581 5581 5582 5581 5580
5645 5644 5644 5643 5641 5640 5637 5636 5634 5632 5631 5629 5628 5627 5625 5622 5620 5618 5616 5613 5611 5608 5606 5604 5603 5601 5599 5593 5590 5586 5589 5589 5588 5586 5584 5581 5579 5575 5572 5573 5574 5574 5573
5637 5636 5636 5635 5634 5632 5630 5628 5627 5626 5624 5622 5621 5619 5618 5616 5614 5612 5609 5607 5604 5601 5599 5597 5595 5594 5591 5587 5583 5580 5581 5580 5580 5578 5576 5574 5570 5567 5564 5564 5565 5565 5563
5630 5629 5628 5627 5626 5624 5623 5622 5620 5618 5616 5614 5613 5612 5611 5609 5607 5604 5602 5600 5597 5594 5592 5590 5588 5586 5583 5579 5576 5573 5571 5570 5570 5569 5568 5566 5561 5558 5556 5555 5555 5553 5552
5622 5622 5621 5620 5618 5617 5615 5614 5613 5610 5608 5606 5605 5604 5603 5601 5599 5596 5593 5591 5589 5587 5585 5583 5580 5578 5576 5572 5568 5564 5562 5560 5560 5560 5557 5554 5551 5549 5548 5546 5544 5544 5545
5616 5614 5614 5612 5611 5609 5608 5607 5605 5603 5601 5600 5598 5597 5595 5592 5591 5588 5586 5583 5581 5579 5577 5575 5573 5570 5568 5565 5561 5558 5554 5552 5551 5550 5548 5545 5542 5540 5538 5538 5537 5537 5537
5608 5607 5606 5605 5604 5602 5601 5599 5597 5596 5594 5593 5591 5589 5586 5584 5582 5579 5577 5576 5574 5572 5570 5568 5566 5563 5561 5558 5553 5550 5549 5546 5544 5541 5540 5538 5536 5534 5533 5532 5530 5529 5527
5600 5599 5598 5597 5596 5595 5593 5591 5589 5588 5587 5585 5583 5581 5578 5575 5573 5571 5568 5564 5563 5560 5558 5557 5555 5555 5551 5548 5544 5541 5539 5536 5533 5532 5532 5531 5529 5527 5525 5523 5521 5520 5519